GW6245 Weather Reports


time (UTC)temp
F
wind
direction
speed
knots
gust
knots
rain 1hr
in
rain 24hr
in
rain mn
in
humidity
%
barometer
mb
20260508125511 62 95 1.7 1.7 0.00 0.01 0.01 72 1001.4
20260508125008 60 78 0.0 0.9 0.00 0.01 0.01 77 1001.6
20260508124506 59 81 0.0 0.9 0.00 0.01 0.01 81 1001.3
20260508124003 58 107 0.9 0.9 0.00 0.01 0.01 85 1001.5
20260508123502 56 100 0.9 0.9 0.00 0.01 0.01 90 1001.4
20260508122958 57 100 0.9 0.9 0.00 0.01 0.01 90 1001.6
20260508122455 56 96 0.0 0.0 0.00 0.01 0.01 90 1001.5
20260508121952 55 99 0.0 0.0 0.00 0.01 0.01 94 1001.3
20260508121450 54 99 0.9 0.9 0.00 0.01 0.01 97 1001.3
20260508120948 53 97 0.0 0.0 0.00 0.01 0.01 99 1001.3
20260508120445 53 101 0.0 0.0 0.00 0.01 0.01 99 1001.2
20260508115943 53 95 0.0 0.0 0.00 0.01 0.01 99 1001.1
20260508115441 53 97 0.0 0.0 0.00 0.01 0.01 99 1000.9
20260508114937 51 95 0.0 0.0 0.00 0.01 0.01 99 1001.1
20260508114434 52 99 0.0 0.0 0.00 0.01 0.01 99 1001.0
20260508113930 52 98 0.0 0.0 0.00 0.01 0.01 99 1000.8
20260508113428 51 99 0.0 0.0 0.00 0.01 0.01 99 1000.7
20260508112925 51 96 0.0 0.0 0.00 0.01 0.01 99 1000.9
20260508112422 50 95 0.0 0.0 0.00 0.01 0.01 99 1000.7
20260508111918 49 95 0.0 0.0 0.00 0.01 0.01 99 1000.5
20260508111416 49 96 0.0 0.0 0.00 0.01 0.01 99 1000.6
20260508110913 48 95 0.0 0.0 0.00 0.01 0.01 99 1000.4
20260508110411 48 96 0.0 0.9 0.00 0.01 0.01 99 1000.5
20260508105910 48 90 0.0 0.0 0.00 0.01 0.01 99 1000.3
20260508105406 49 98 0.0 0.0 0.00 0.01 0.01 99 1000.3
20260508104904 49 98 0.0 0.0 0.00 0.01 0.01 99 1000.2
20260508104401 48 98 0.0 0.0 0.00 0.01 0.01 99 999.8
20260508103858 48 98 0.0 0.0 0.00 0.01 0.01 99 999.9
20260508103355 48 98 0.0 0.0 0.00 0.01 0.01 99 999.7
20260508102852 48 98 0.0 0.0 0.00 0.01 0.01 99 999.7
20260508102350 49 98 0.0 0.0 0.00 0.01 0.01 99 999.5
20260508101847 48 98 0.0 0.0 0.00 0.01 0.01 99 999.6
20260508101344 48 98 0.0 0.0 0.00 0.01 0.01 99 999.3
20260508100842 48 99 0.0 0.0 0.00 0.01 0.01 99 999.5
20260508100341 48 99 0.0 0.0 0.00 0.01 0.01 99 999.5
20260508095836 49 96 0.0 0.0 0.00 0.01 0.01 99 999.4
20260508095334 49 96 0.0 0.0 0.00 0.01 0.01 99 999.1
20260508094831 50 97 0.0 0.0 0.00 0.01 0.01 99 999.3
20260508094327 49 96 0.0 0.0 0.00 0.01 0.01 99 999.3
20260508093824 49 97 0.9 0.9 0.00 0.01 0.01 99 999.3
20260508093322 49 98 0.0 0.0 0.00 0.01 0.01 99 999.4
20260508092819 49 102 0.0 0.0 0.00 0.01 0.01 99 999.3
20260508092317 50 107 0.0 0.9 0.00 0.01 0.01 99 999.1
20260508091815 49 97 0.0 0.0 0.00 0.01 0.01 99 999.1
20260508091311 50 97 0.0 0.0 0.00 0.01 0.01 99 999.1
20260508090809 50 97 0.0 0.0 0.00 0.01 0.01 99 999.1
20260508090307 51 97 0.0 0.0 0.00 0.01 0.01 99 999.1
20260508085803 50 97 0.0 0.0 0.00 0.01 0.01 99 999.1
20260508085300 50 97 0.0 0.0 0.00 0.01 0.01 99 999.0
20260508084755 50 98 0.0 0.0 0.00 0.01 0.01 99 999.1
20260508084253 51 88 0.0 0.0 0.00 0.01 0.01 99 998.9
20260508083750 52 87 0.0 0.0 0.00 0.01 0.01 99 998.7
20260508083248 52 87 0.0 0.0 0.00 0.01 0.01 99 999.0
20260508082747 53 88 0.0 0.0 0.00 0.01 0.01 99 998.8
20260508082246 53 88 0.0 0.0 0.00 0.01 0.01 99 999.0
20260508081742 52 89 0.0 0.0 0.00 0.01 0.01 99 998.7
20260508081239 52 89 0.0 0.0 0.00 0.01 0.01 99 998.8
20260508080736 52 87 0.0 0.0 0.00 0.01 0.01 99 998.6
20260508080235 52 90 0.0 0.0 0.00 0.01 0.01 99 998.3
20260508075731 51 97 0.0 0.0 0.00 0.01 0.01 99 998.5
20260508075228 51 97 0.0 0.0 0.00 0.01 0.01 99 998.3
20260508074725 52 96 0.0 0.0 0.00 0.01 0.01 99 998.5
20260508074223 51 97 0.0 0.0 0.00 0.01 0.01 99 998.5
20260508073719 52 97 0.0 0.0 0.00 0.01 0.01 99 998.5
20260508073217 51 97 0.0 0.0 0.00 0.01 0.01 99 998.4
20260508072713 51 98 0.0 0.0 0.00 0.01 0.01 99 998.5
20260508072210 52 98 0.0 0.0 0.00 0.01 0.01 99 998.5
20260508071708 52 98 0.0 0.0 0.00 0.01 0.01 99 998.5
20260508071206 53 97 0.0 0.0 0.00 0.01 0.01 99 998.2
20260508070703 52 99 0.0 0.0 0.00 0.01 0.01 99 998.3
20260508070201 52 99 0.0 0.0 0.00 0.01 0.01 99 998.4
20260508065658 52 100 0.0 0.0 0.00 0.01 0.01 99 998.2
20260508065156 53 92 0.0 0.0 0.00 0.01 0.01 99 998.4
20260508064653 54 92 0.0 0.0 0.00 0.01 0.01 99 998.2
20260508064152 54 92 0.0 0.0 0.00 0.01 0.01 99 998.2
20260508063649 54 92 0.0 0.0 0.00 0.01 0.01 99 998.4
20260508063146 55 92 0.0 0.0 0.00 0.01 0.01 99 998.1
20260508062644 54 92 0.0 0.0 0.00 0.01 0.01 99 998.2
20260508062140 53 93 0.0 0.0 0.00 0.01 0.01 99 998.3
20260508061638 53 93 0.0 0.0 0.00 0.01 0.01 99 998.4
20260508061135 54 93 0.0 0.0 0.00 0.01 0.01 99 998.3
20260508060631 54 92 0.0 0.0 0.00 0.01 0.01 99 998.2
20260508060129 55 92 0.0 0.0 0.00 0.01 0.01 99 998.2
20260508055624 55 94 0.0 0.0 0.00 0.01 0.01 99 998.3
20260508055122 54 95 0.0 0.0 0.00 0.01 0.01 99 998.5
20260508054618 54 95 0.0 0.0 0.00 0.01 0.01 99 998.4
20260508054116 54 95 0.0 0.0 0.00 0.01 0.01 99 998.2
20260508053612 55 95 0.0 0.0 0.00 0.01 0.01 99 998.2
20260508053110 55 94 0.0 0.0 0.00 0.01 0.01 99 998.0
20260508052607 55 95 0.0 0.0 0.00 0.01 0.01 99 998.2
20260508052104 55 94 0.0 0.0 0.00 0.01 0.01 99 998.1
20260508051600 57 91 0.0 0.0 0.07 0.01 0.01 99 998.0
20260508051056 57 90 0.0 0.0 0.07 0.01 0.01 99 998.0
20260508050552 57 91 0.0 0.0 0.00 0.00 0.00 99 998.1
20260508050050 55 94 0.0 0.0 0.00 0.00 0.00 99 998.4
20260508045546 57 88 0.0 0.0 0.00 0.00 0.00 99 998.0
20260508045044 57 88 0.0 0.0 0.00 0.00 0.00 99 998.2
20260508044540 57 88 0.0 0.0 0.00 0.00 0.00 99 997.9
20260508044036 56 88 0.0 0.0 0.00 0.00 0.00 99 998.0
20260508043533 55 88 0.0 0.0 0.00 0.00 0.00 99 997.8
20260508043031 56 88 0.0 0.0 0.00 0.00 0.00 99 997.9
20260508042527 57 85 0.0 0.0 0.00 0.00 0.00 99 997.8
20260508042025 58 89 0.0 0.0 0.00 0.00 0.00 99 998.0
20260508041521 57 89 0.0 0.0 0.00 0.00 0.00 99 997.7
20260508041018 57 93 0.0 0.0 0.00 0.00 0.00 99 997.7
20260508040515 56 104 0.0 0.0 0.00 0.00 0.00 99 997.9
20260508040012 56 97 0.0 0.0 0.00 1.50 1.50 99 997.7
20260508035509 56 98 0.0 0.0 0.00 1.50 1.50 99 997.8
20260508035006 56 96 0.0 0.0 0.00 1.50 1.50 99 997.7
20260508034503 56 91 0.0 0.0 0.00 1.50 1.50 99 997.6
20260508034000 57 87 0.0 0.0 0.00 1.50 1.50 99 997.8
20260508033458 58 87 0.0 0.0 0.00 1.50 1.50 99 997.6
20260508032955 58 87 0.0 0.0 0.00 1.50 1.50 99 997.8
20260508032452 57 87 0.0 0.0 0.00 1.50 1.50 99 997.7
20260508031949 58 83 0.0 0.0 0.00 1.50 1.50 99 997.7
20260508031447 58 89 0.0 0.0 0.00 1.50 1.50 99 997.6
20260508030942 59 88 0.0 0.0 0.00 1.50 1.50 99 997.6
20260508030439 58 89 0.0 0.0 0.00 1.50 1.50 99 997.7
20260508025936 58 89 0.0 0.0 0.00 1.50 1.50 99 997.6
20260508025433 58 89 0.0 0.0 0.00 1.50 1.50 99 997.7
20260508024930 57 90 0.0 0.0 0.00 1.50 1.50 99 997.5
20260508024426 57 88 0.0 0.0 0.00 1.50 1.50 99 997.7
20260508023923 58 89 0.0 0.0 0.00 1.50 1.50 99 997.3
20260508023420 57 101 0.0 0.0 0.00 1.50 1.50 99 997.5
20260508022917 57 108 0.9 0.9 0.00 1.50 1.50 99 997.4
20260508022413 58 84 0.0 0.0 0.00 1.50 1.50 99 997.3
20260508021910 57 98 0.0 0.0 0.00 1.50 1.50 99 997.1
20260508021406 58 86 0.0 0.0 0.00 1.50 1.50 99 996.8
20260508020902 58 93 0.0 0.0 0.00 1.50 1.50 99 996.7
20260508020400 58 94 0.0 0.0 0.00 1.50 1.50 99 996.7
20260508015856 58 93 0.0 0.0 0.00 1.50 1.50 99 996.7
20260508015354 58 96 0.0 0.0 0.00 1.50 1.50 99 996.7
20260508014850 57 100 0.0 0.0 0.00 1.50 1.50 99 996.9
20260508014348 57 100 0.0 0.0 0.00 1.50 1.50 99 996.8
20260508013843 58 93 0.9 0.9 0.00 1.50 1.50 99 996.7
20260508013340 59 89 0.0 0.0 0.00 1.50 1.50 99 996.5
20260508012837 59 89 0.0 0.0 0.00 1.50 1.50 99 996.4
20260508012334 58 89 0.0 0.0 0.00 1.50 1.50 99 996.4
20260508011832 57 89 0.0 0.0 0.00 1.50 1.50 99 996.4
20260508011330 57 95 0.0 0.0 0.00 1.50 1.50 99 996.5
20260508010826 57 106 0.0 0.0 0.00 1.50 1.50 99 996.2
20260508010324 57 96 0.0 0.0 0.00 1.50 1.50 99 996.0
20260508005821 58 86 0.0 0.0 0.00 1.50 1.50 99 996.0
20260508005318 57 86 0.0 0.0 0.00 1.50 1.50 99 995.6
20260508004814 57 84 0.0 0.0 0.00 1.50 1.50 99 995.6
20260508004310 57 93 0.0 0.0 0.00 1.50 1.50 99 995.6
20260508003807 57 86 0.0 0.9 0.00 1.50 1.50 99 995.4
20260508003305 58 88 0.0 0.0 0.00 1.50 1.50 99 995.5
20260508002801 58 82 0.9 1.7 0.00 1.50 1.50 99 995.1
20260508002258 57 86 0.0 0.9 0.00 1.50 1.50 99 995.1
20260508001754 57 83 0.9 0.9 0.00 1.50 1.50 99 995.2
20260508001249 57 82 0.0 0.0 0.00 1.50 1.50 99 994.9
20260508000746 57 90 0.0 0.0 0.00 1.50 1.50 99 995.0
20260508000243 57 95 0.0 0.9 0.00 1.50 1.50 99 994.8
20260507235739 58 85 0.0 0.9 0.00 1.50 1.50 99 994.4
20260507235237 58 76 0.0 0.0 0.00 1.50 1.50 99 994.2
20260507234734 58 84 0.0 0.0 0.00 1.50 1.50 99 994.3
20260507234230 58 82 0.0 0.0 0.00 1.50 1.50 99 994.6
20260507233727 58 87 0.0 0.0 0.00 1.50 1.50 99 994.3
20260507233225 58 70 0.9 1.7 0.00 1.50 1.50 99 994.2
20260507232722 58 88 2.6 4.3 0.00 1.50 1.50 99 994.4
20260507232219 59 87 0.0 0.0 0.00 1.50 1.50 99 994.3
20260507231715 59 86 0.0 0.0 0.00 1.50 1.50 99 994.0
20260507231213 59 86 0.0 0.0 0.00 1.50 1.50 99 993.8
20260507230709 59 93 0.0 0.9 0.05 1.50 1.50 99 993.8
20260507230207 59 96 1.7 1.7 0.12 1.50 1.50 99 993.6
20260507225706 59 76 1.7 2.6 0.17 1.50 1.50 99 993.7
20260507225203 59 101 0.0 0.9 0.12 1.48 1.48 99 993.9
20260507224658 58 81 0.9 0.9 0.26 1.47 1.47 99 994.0
20260507224155 59 87 0.0 0.9 0.31 1.46 1.46 99 993.9
20260507223651 58 78 0.9 1.7 0.35 1.44 1.44 99 993.9
20260507223148 59 81 0.9 1.7 0.78 1.41 1.41 99 993.9
20260507222645 59 90 0.9 0.9 1.16 1.38 1.38 99 993.9
20260507222141 59 90 0.9 0.9 0.85 1.29 1.29 99 993.7
20260507221638 59 74 0.9 0.9 0.59 1.19 1.19 99 993.5
20260507221134 59 74 3.5 5.2 0.94 1.15 1.15 98 993.3
20260507220632 60 57 0.9 1.7 0.97 1.09 1.09 97 992.5
20260507220130 61 107 0.9 0.9 0.35 0.98 0.98 97 992.8
20260507215625 61 88 0.9 0.9 0.17 0.93 0.93 95 992.9
20260507215123 62 81 0.9 0.9 0.05 0.91 0.91 94 992.0
20260507214620 62 100 0.9 0.9 0.00 0.90 0.90 93 992.1
20260507214116 63 84 0.9 0.9 0.00 0.90 0.90 92 991.8
20260507213612 64 75 0.9 1.7 0.00 0.90 0.90 90 991.5
20260507213110 64 49 0.9 1.7 0.00 0.90 0.90 87 991.6
20260507212606 65 70 0.9 1.7 0.00 0.90 0.90 87 991.8
20260507212102 66 85 1.7 2.6 0.00 0.90 0.90 86 992.1
20260507211559 66 82 1.7 1.7 0.00 0.90 0.90 84 992.0
20260507211055 68 58 0.9 1.7 0.00 0.90 0.90 83 992.1
20260507210553 71 72 3.5 5.2 0.00 0.90 0.90 79 991.6
20260507210049 79 138 6.1 8.7 0.00 0.90 0.90 72 991.4
20260507205546 80 104 0.0 0.9 0.00 0.90 0.90 66 991.0
20260507205042 80 78 0.9 0.9 0.00 0.90 0.90 64 991.0
20260507204539 77 102 0.0 0.9 0.00 0.90 0.90 68 991.0
20260507204036 77 110 0.0 0.0 0.00 0.90 0.90 69 991.2
20260507203534 78 112 0.9 0.9 0.00 0.90 0.90 70 990.9
20260507203031 79 106 1.7 1.7 0.00 0.90 0.90 68 991.0
20260507202527 80 127 1.7 2.6 0.00 0.90 0.90 69 990.9
20260507202023 79 200 1.7 1.7 0.00 0.90 0.90 70 990.6
20260507201519 77 96 0.0 0.9 0.00 0.90 0.90 71 990.8
20260507201015 77 123 0.9 0.9 0.00 0.90 0.90 71 990.7
20260507200511 77 123 2.6 4.3 0.00 0.90 0.90 71 991.1
20260507200007 78 121 2.6 2.6 0.00 0.90 0.90 72 991.3
20260507195504 78 205 0.9 1.7 0.00 0.90 0.90 74 991.3
20260507195002 78 193 2.6 4.3 0.00 0.90 0.90 73 991.5
20260507194458 77 125 1.7 4.3 0.00 0.90 0.90 74 991.5
20260507193954 77 187 3.5 4.3 0.00 0.90 0.90 75 991.5
20260507193452 76 115 0.9 0.9 0.00 0.90 0.90 75 991.4
20260507192948 77 147 1.7 2.6 0.00 0.90 0.90 74 991.6
20260507192444 77 119 0.9 0.9 0.00 0.90 0.90 76 991.7
20260507191942 79 103 1.7 1.7 0.00 0.90 0.90 73 991.7
20260507191437 78 128 0.9 1.7 0.00 0.90 0.90 76 991.7
20260507190934 77 56 0.0 0.9 0.00 0.90 0.90 77 992.0
20260507190432 76 128 0.9 1.7 0.00 0.90 0.90 82 992.1
20260507185931 75 105 0.0 0.9 0.00 0.90 0.90 81 992.2
20260507185427 75 104 0.9 0.9 0.00 0.90 0.90 80 992.0
20260507184924 76 119 1.7 1.7 0.00 0.90 0.90 81 992.0
20260507184422 76 234 5.2 6.1 0.00 0.90 0.90 81 992.0
20260507183919 74 96 0.9 0.9 0.00 0.90 0.90 87 991.9
20260507183416 74 128 0.9 1.7 0.00 0.90 0.90 88 992.1
20260507182914 73 102 0.9 0.9 0.00 0.90 0.90 85 992.0
20260507182409 72 98 0.0 0.0 0.00 0.90 0.90 92 992.1
20260507181906 70 43 0.9 1.7 0.00 0.90 0.90 94 992.1
20260507181402 71 107 0.0 0.9 0.00 0.90 0.90 94 992.3
20260507180859 71 121 0.9 1.7 0.00 0.90 0.90 92 992.4
20260507180355 71 82 0.9 0.9 0.00 0.90 0.90 94 992.5
20260507175851 71 112 0.9 0.9 0.00 0.90 0.90 96 992.5
20260507175348 69 109 0.9 0.9 0.00 0.90 0.90 96 992.8
20260507174846 70 94 0.0 0.9 0.00 0.90 0.90 97 992.9
20260507174343 70 87 0.0 0.0 0.00 0.90 0.90 98 992.8
20260507173841 69 101 0.0 0.9 0.00 0.90 0.90 98 992.8
20260507173337 70 91 0.0 0.0 0.00 0.90 0.90 99 992.3
20260507172833 69 79 0.9 0.9 0.00 0.90 0.90 99 992.2
20260507172331 69 106 0.9 0.9 0.00 0.90 0.90 99 992.9
20260507171826 69 84 0.0 0.9 0.00 0.90 0.90 99 993.1
20260507171323 68 92 0.0 0.0 0.00 0.90 0.90 99 993.0
20260507170820 68 96 0.9 0.9 0.00 0.90 0.90 99 993.0
20260507170317 68 106 0.0 0.9 0.00 0.90 0.90 99 992.7
20260507165813 69 127 0.9 0.9 0.00 0.90 0.90 99 992.7
20260507165309 69 102 0.0 0.9 0.00 0.90 0.90 99 992.7
20260507164805 68 100 0.0 0.9 0.00 0.90 0.90 99 992.5
20260507164302 68 112 0.9 0.9 0.00 0.90 0.90 99 992.9
20260507163759 68 118 0.9 0.9 0.00 0.90 0.90 99 993.3
20260507163257 68 102 0.0 0.0 0.00 0.90 0.90 99 993.5
20260507162753 68 84 0.0 0.9 0.00 0.90 0.90 99 993.5
20260507162249 68 133 0.0 0.9 0.00 0.90 0.90 99 993.4
20260507161746 68 84 0.0 0.0 0.00 0.90 0.90 99 993.2
20260507161243 68 101 0.0 0.0 0.00 0.90 0.90 99 992.8
20260507160738 68 92 0.0 0.0 0.00 0.90 0.90 99 992.7
20260507160235 68 92 0.0 0.0 0.00 0.90 0.90 99 992.4
20260507155731 68 53 0.9 1.7 0.00 0.90 0.90 99 992.2
20260507155227 68 76 0.0 0.0 0.00 0.90 0.90 99 991.9
20260507154724 66 103 0.9 0.9 0.00 0.90 0.90 99 992.0
20260507154222 67 95 0.9 0.9 0.00 0.90 0.90 99 992.0
20260507153718 67 94 0.0 0.9 0.00 0.90 0.90 99 992.1
20260507153214 67 82 0.0 0.0 0.07 0.90 0.90 99 992.4
20260507152711 67 89 0.0 0.0 0.07 0.90 0.90 99 992.5
20260507152207 66 113 0.9 0.9 0.00 0.89 0.89 99 992.8
20260507151703 66 119 0.9 0.9 0.05 0.89 0.89 99 993.5
20260507151200 66 103 0.0 0.0 0.05 0.89 0.89 99 993.6
20260507150657 66 111 0.0 0.0 0.07 0.88 0.88 99 993.9
20260507150154 66 108 0.0 0.0 0.07 0.88 0.88 99 993.8
20260507145649 66 104 0.0 0.0 0.00 0.87 0.87 99 993.9
20260507145147 66 99 0.0 0.0 0.00 0.87 0.87 99 993.9
20260507144643 66 96 0.0 0.0 0.05 0.87 0.87 99 994.0
20260507144141 66 110 0.0 0.9 0.05 0.87 0.87 99 994.1
20260507143637 66 144 1.7 1.7 0.00 0.86 0.86 99 994.0
20260507143135 66 107 0.0 0.0 0.00 0.86 0.86 99 993.6
20260507142630 66 94 0.0 0.0 0.00 0.86 0.86 99 993.7
20260507142127 66 174 1.7 1.7 0.00 0.86 0.86 99 993.6
20260507141623 66 83 0.0 0.0 0.00 0.86 0.86 99 993.5
20260507141120 66 111 0.0 0.0 0.00 0.86 0.86 99 993.4
20260507140617 66 103 0.0 0.0 0.00 0.86 0.86 99 993.4
20260507140114 66 121 1.7 1.7 0.07 0.86 0.86 99 993.0
20260507135611 66 95 0.0 0.0 0.07 0.86 0.86 99 993.2
20260507135109 66 95 0.0 0.0 0.07 0.86 0.86 99 993.4
20260507134605 66 102 0.0 0.9 0.00 0.85 0.85 99 993.6
20260507134101 66 94 0.0 0.0 0.00 0.85 0.85 99 993.4
20260507133557 66 92 0.0 0.0 0.00 0.85 0.85 99 993.9
20260507133055 66 103 0.0 0.0 0.05 0.85 0.85 99 993.9
20260507132551 66 96 0.0 0.0 0.05 0.85 0.85 99 993.4
20260507132048 65 99 0.0 0.0 0.00 0.84 0.84 99 993.5
20260507131545 66 100 0.0 0.0 0.00 0.84 0.84 99 993.5
20260507131042 66 96 0.0 0.0 0.00 0.84 0.84 99 993.6
20260507130539 65 98 0.0 0.0 0.07 0.84 0.84 99 993.6
20260507130037 66 90 0.0 0.0 0.07 0.84 0.84 99 993.8